M0ZPG Weather Reports


time (UTC)temp
F
wind
direction
speed
knots
gust
knots
rain 1hr
in
rain 24hr
in
rain mn
in
humidity
%
barometer
mb
20260508031803 45 0 0.0 0.0 0.00 0.00 0.00 90 1014.7
20260508030903 45 0 0.0 0.0 0.00 0.00 0.00 90 1014.8
20260508030005 45 0 0.0 0.0 0.00 0.00 0.00 91 1014.8
20260508025405 45 96 0.0 0.9 0.00 0.00 0.00 91 1014.8
20260508024503 44 96 0.0 0.9 0.00 0.00 0.00 90 1014.8
20260508023605 44 0 0.0 0.0 0.00 0.00 0.00 90 1014.9
20260508022703 44 0 0.0 0.0 0.00 0.00 0.00 89 1014.9
20260508021805 44 0 0.0 0.0 0.00 0.00 0.00 89 1014.9
20260508020903 45 0 0.0 0.0 0.00 0.00 0.00 88 1014.9
20260508020003 45 0 0.0 0.0 0.00 0.00 0.00 88 1014.9
20260508015405 45 0 0.0 0.0 0.00 0.00 0.00 88 1015.0
20260508014717 46 0 0.0 0.0 0.00 0.00 0.00 88 1015.0
20260508013603 46 97 0.0 0.9 0.00 0.00 0.00 88 1015.1
20260508012703 46 0 0.0 0.0 0.00 0.00 0.00 87 1015.1
20260508011803 46 0 0.0 0.0 0.00 0.00 0.00 88 1015.1
20260508011116 47 96 0.0 0.9 0.00 0.00 0.00 88 1015.1
20260508010005 47 0 0.0 0.0 0.00 0.00 0.00 87 1015.0
20260508005403 47 0 0.0 0.0 0.00 0.00 0.00 87 1015.1
20260508004505 47 98 0.0 0.9 0.00 0.00 0.00 87 1015.1
20260508003814 47 98 0.0 0.9 0.00 0.00 0.00 86 1015.1
20260508002704 47 0 0.0 0.0 0.00 0.00 0.00 85 1015.2
20260508001803 48 97 0.0 0.9 0.00 0.00 0.00 85 1015.2
20260508000905 48 97 0.0 0.9 0.00 0.00 0.00 85 1015.2
20260508000006 49 97 0.0 0.9 0.00 0.00 0.00 84 1015.2
20260507235615 49 96 0.0 0.9 0.00 0.00 0.00 84 1015.2
20260507234504 49 0 0.0 0.0 0.00 0.00 0.00 83 1015.2
20260507233606 50 0 0.0 0.0 0.00 0.00 0.00 83 1015.2
20260507232705 50 96 0.0 0.9 0.00 0.00 0.00 82 1015.3
20260507231803 50 97 0.0 0.9 0.00 0.00 0.00 82 1015.4
20260507230903 51 97 0.0 0.9 0.00 0.00 0.00 81 1015.3
20260507230214 51 0 0.0 0.0 0.00 0.00 0.00 81 1015.2
20260507225405 51 0 0.0 0.0 0.00 0.00 0.00 80 1015.4
20260507224505 52 97 0.0 0.9 0.00 0.00 0.00 80 1015.5
20260507223603 52 97 0.0 2.6 0.00 0.00 0.00 80 1015.6
20260507222703 52 97 0.0 1.7 0.00 0.00 0.00 80 1015.5
20260507221806 52 97 0.0 1.7 0.00 0.00 0.00 79 1015.4
20260507220906 52 97 0.0 0.9 0.00 0.00 0.00 79 1015.5
20260507220004 52 97 0.0 1.7 0.00 0.00 0.00 79 1015.5
20260507215403 52 97 0.0 1.7 0.00 0.00 0.00 79 1015.6
20260507214714 52 97 0.0 1.7 0.00 0.00 0.00 79 1015.6
20260507213816 52 97 0.0 1.7 0.00 0.00 0.00 78 1015.6
20260507212705 53 97 0.0 1.7 0.00 0.00 0.00 78 1015.6
20260507211806 53 97 0.0 2.6 0.00 0.00 0.00 78 1015.6
20260507210905 53 98 0.0 1.7 0.00 0.00 0.00 77 1015.6
20260507210005 53 98 0.9 2.6 0.00 0.00 0.00 77 1015.5
20260507205405 53 98 0.0 2.6 0.00 0.00 0.00 77 1015.5
20260507204503 53 98 0.0 2.6 0.00 0.00 0.00 76 1015.4
20260507203604 53 101 0.9 5.2 0.00 0.00 0.00 76 1015.4
20260507202703 53 104 0.9 2.6 0.00 0.00 0.00 76 1015.4
20260507201806 54 104 0.9 2.6 0.00 0.00 0.00 75 1015.3
20260507200905 54 91 0.9 3.5 0.00 0.00 0.00 75 1015.2
20260507200216 54 93 0.0 3.5 0.00 0.00 0.00 75 1015.2
20260507195404 54 93 0.0 2.6 0.00 0.00 0.00 74 1015.0
20260507194503 54 98 0.9 5.2 0.00 0.00 0.00 74 1014.9
20260507193605 54 96 0.9 5.2 0.00 0.00 0.00 73 1014.8
20260507192705 54 98 0.9 6.1 0.00 0.00 0.00 73 1014.7
20260507191804 55 105 0.9 3.5 0.00 0.00 0.00 72 1014.8
20260507190903 55 94 1.7 7.0 0.00 0.00 0.00 72 1014.7
20260507190006 55 94 1.7 7.8 0.00 0.00 0.00 72 1014.7
20260507185613 55 94 1.7 7.8 0.00 0.00 0.00 72 1014.7
20260507184504 56 99 1.7 5.2 0.00 0.00 0.00 71 1014.7
20260507183604 56 87 1.7 7.0 0.00 0.00 0.00 71 1014.7
20260507182916 56 103 2.6 7.8 0.00 0.00 0.00 71 1014.6
20260507181803 56 97 1.7 6.1 0.00 0.00 0.00 70 1014.6
20260507180905 56 121 1.7 6.1 0.00 0.00 0.00 69 1014.6
20260507180005 57 130 1.7 5.2 0.00 0.00 0.00 68 1014.5
20260507175405 57 132 1.7 3.5 0.00 0.00 0.00 67 1014.5
20260507174716 57 128 1.7 5.2 0.00 0.00 0.00 66 1014.5
20260507173605 57 111 1.7 7.0 0.00 0.00 0.00 66 1014.4
20260507172916 58 122 1.7 7.0 0.00 0.00 0.00 66 1014.4
20260507171804 58 114 0.9 4.3 0.00 0.00 0.00 65 1014.5
20260507170904 58 159 1.7 5.2 0.00 0.00 0.00 63 1014.4
20260507170004 58 166 0.9 3.5 0.00 0.00 0.00 62 1014.4
20260507165406 58 165 1.7 4.3 0.00 0.00 0.00 61 1014.4
20260507164505 58 139 0.9 3.5 0.00 0.00 0.00 61 1014.4
20260507163605 58 151 0.9 4.3 0.00 0.00 0.00 61 1014.3
20260507162705 58 127 0.9 3.5 0.00 0.00 0.00 61 1014.4
20260507161805 59 128 0.9 3.5 0.00 0.00 0.00 61 1014.3
20260507160905 59 107 1.7 6.1 0.00 0.00 0.00 60 1014.4
20260507160005 59 139 1.7 7.0 0.00 0.00 0.00 60 1014.4
20260507155615 59 120 1.7 7.0 0.00 0.00 0.00 61 1014.4
20260507154504 59 117 0.9 7.0 0.00 0.00 0.00 63 1014.4
20260507153605 58 159 0.9 4.3 0.00 0.00 0.00 62 1014.3
20260507152917 58 142 0.9 4.3 0.00 0.00 0.00 61 1014.3
20260507151806 58 142 0.9 2.6 0.00 0.00 0.00 60 1014.4
20260507150905 58 144 0.9 1.7 0.00 0.00 0.00 60 1014.5
20260507150009 58 141 0.9 5.2 0.00 0.00 0.00 60 1014.5
20260507145405 59 103 1.7 5.2 0.00 0.00 0.00 60 1014.5
20260507144503 59 125 0.9 5.2 0.00 0.00 0.00 58 1014.5
20260507143603 59 146 0.9 4.3 0.00 0.00 0.00 59 1014.5
20260507142705 60 108 1.7 6.1 0.00 0.00 0.00 59 1014.6
20260507141803 60 88 1.7 7.0 0.00 0.00 0.00 59 1014.5
20260507140905 60 97 1.7 7.0 0.00 0.00 0.00 59 1014.6
20260507140003 60 99 1.7 7.8 0.00 0.00 0.00 62 1014.7
20260507135404 59 99 1.7 7.0 0.00 0.00 0.00 63 1014.6
20260507134503 59 84 2.6 7.8 0.00 0.00 0.00 62 1014.6
20260507133603 60 94 1.7 5.2 0.00 0.00 0.00 62 1014.8
20260507132703 60 85 1.7 4.3 0.00 0.00 0.00 59 1014.8
20260507131806 60 113 0.9 3.5 0.00 0.00 0.00 60 1014.8
20260507130906 59 99 0.9 3.5 0.00 0.00 0.00 61 1014.9
20260507130007 58 78 0.9 3.5 0.00 0.00 0.00 64 1014.9
20260507125408 58 79 0.9 2.6 0.00 0.00 0.00 64 1014.9
20260507124504 58 82 0.9 6.1 0.00 0.00 0.00 65 1015.0
20260507123817 57 79 0.9 6.1 0.00 0.00 0.00 65 1015.1
20260507122705 57 76 0.9 3.5 0.00 0.00 0.00 66 1015.0
20260507121805 56 73 0.9 3.5 0.00 0.00 0.00 66 1015.1
20260507120903 56 78 0.0 1.7 0.00 0.00 0.00 67 1015.1
20260507120005 56 78 0.9 2.6 0.00 0.00 0.00 66 1015.1
20260507115404 55 79 0.0 2.6 0.00 0.00 0.00 67 1015.0
20260507114504 55 79 0.0 1.7 0.00 0.00 0.00 67 1015.0
20260507113605 55 79 0.0 2.6 0.00 0.00 0.00 67 1015.1
20260507112705 55 79 0.9 1.7 0.00 0.00 0.00 67 1015.0
20260507111804 55 79 0.0 2.6 0.00 0.00 0.00 68 1015.2
20260507110905 55 79 0.9 4.3 0.00 0.00 0.00 68 1015.2
20260507110217 55 80 0.0 4.3 0.00 0.00 0.00 68 1015.2
20260507105613 55 81 0.0 1.7 0.00 0.00 0.00 68 1015.2
20260507104503 55 81 0.0 1.7 0.00 0.00 0.00 68 1015.2
20260507103605 56 81 0.9 3.5 0.00 0.00 0.00 68 1015.2
20260507102915 55 83 0.0 3.5 0.00 0.00 0.00 69 1015.1
20260507101803 54 84 0.9 2.6 0.00 0.00 0.00 70 1015.3
20260507100904 54 85 0.9 2.6 0.00 0.00 0.00 71 1015.3
20260507100005 54 86 0.9 1.7 0.00 0.00 0.00 72 1015.3
20260507095405 54 86 0.9 3.5 0.00 0.00 0.00 71 1015.3
20260507094505 54 86 0.9 3.5 0.00 0.00 0.00 72 1015.2
20260507093814 54 91 0.9 3.5 0.00 0.00 0.00 72 1015.2
20260507092916 54 101 0.9 3.5 0.00 0.00 0.00 70 1015.2
20260507091803 55 103 0.0 1.7 0.00 0.00 0.00 72 1015.2
20260507090905 55 103 0.0 0.9 0.00 0.00 0.00 71 1015.1
20260507090004 55 103 0.0 2.6 0.00 0.00 0.00 71 1015.1
20260507085403 55 103 0.0 1.7 0.00 0.00 0.00 71 1015.1
20260507084717 54 102 0.9 3.5 0.00 0.00 0.00 73 1015.1
20260507083605 54 102 0.9 3.5 0.00 0.00 0.00 74 1015.1
20260507082703 54 103 0.9 5.2 0.00 0.00 0.00 73 1015.0
20260507082014 54 103 0.9 3.5 0.00 0.00 0.00 73 1015.0
20260507081116 54 104 0.9 3.5 0.00 0.00 0.00 73 1015.1
20260507080214 54 105 0.9 3.5 0.00 0.00 0.00 73 1015.1
20260507075405 54 105 0.0 1.7 0.00 0.00 0.00 73 1015.0
20260507074718 55 103 0.9 3.5 0.00 0.00 0.00 75 1015.0
20260507073815 55 102 0.9 3.5 0.00 0.00 0.00 73 1015.1
20260507072705 54 100 0.9 3.5 0.00 0.00 0.00 77 1015.1
20260507071805 54 101 0.9 3.5 0.00 0.00 0.00 77 1015.1
20260507070905 53 102 0.9 5.2 0.00 0.00 0.00 78 1015.1
20260507070009 53 95 0.9 3.5 0.00 0.00 0.00 79 1015.0
20260507065616 53 97 0.9 3.5 0.00 0.00 0.00 79 1015.0
20260507064503 52 93 0.9 2.6 0.00 0.00 0.00 80 1014.9
20260507063605 52 89 0.9 2.6 0.00 0.00 0.00 80 1014.9
20260507062705 52 83 0.9 3.5 0.00 0.00 0.00 81 1014.8
20260507061805 51 22 0.0 1.7 0.00 0.00 0.00 83 1014.7
20260507060905 50 0 0.0 0.0 0.00 0.00 0.00 87 1014.7
20260507060005 48 0 0.0 0.0 0.00 0.00 0.00 89 1014.6
20260507055405 47 0 0.0 0.0 0.00 0.00 0.00 89 1014.6
20260507054503 46 0 0.0 0.0 0.00 0.00 0.00 89 1014.6
20260507053603 46 21 0.0 0.9 0.00 0.00 0.00 88 1014.6
20260507052703 46 21 0.0 0.9 0.00 0.00 0.00 88 1014.5
20260507051803 46 0 0.0 0.0 0.00 0.00 0.00 88 1014.5
20260507050906 46 0 0.0 0.0 0.00 0.00 0.00 88 1014.5
20260507050003 46 0 0.0 0.0 0.00 0.00 0.00 87 1014.5
20260507045617 46 21 0.0 0.9 0.00 0.00 0.00 87 1014.4
20260507044505 46 21 0.0 0.9 0.00 0.00 0.00 87 1014.4
20260507043604 47 0 0.0 0.0 0.00 0.00 0.00 87 1014.4
20260507042703 47 0 0.0 0.0 0.00 0.00 0.00 87 1014.3
20260507041805 47 0 0.0 0.0 0.00 0.00 0.00 87 1014.4
20260507040905 47 0 0.0 0.0 0.00 0.00 0.00 88 1014.4
20260507040003 47 21 0.0 0.9 0.00 0.00 0.00 88 1014.3
20260507035403 47 0 0.0 0.0 0.00 0.00 0.00 88 1014.3
20260507034505 47 0 0.0 0.0 0.00 0.00 0.00 87 1014.3
20260507033812 47 0 0.0 0.0 0.00 0.00 0.00 87 1014.3
20260507032703 47 0 0.0 0.0 0.00 0.00 0.00 86 1014.1